Location: ??????
(41.3747°N, 22.5491°E)
Time: 15:23:38
(UTC+00:00)

SL-8 Rocket - Pass Details

Date: 01 December 2020
Orbit: 958 x 990 km, 82.9° (Epoch: 20 January)

Event Time Altitude Azimuth Distance (km) Brightness Sun altitude
Rises 15:29:53 0° 356° (N) 3,679 6.8 -5.7°
Reaches altitude 10° 15:32:28 10° 1° (N) 2,732 6.1 -6.1°
Maximum altitude 15:38:37 57° 79° (E) 1,143 4.1 -7.2°
Drops below altitude 10° 15:44:47 10° 158° (SSE) 2,734 6.4 -8.2°
Sets 15:47:21 0° 162° (SSE) 3,682 7.1 -8.7°
